AJ5TT Weather Reports


time (UTC)temp
C
wind
direction
speed
KPH
gust
KPH
rain 1hr
cm
rain 24hr
cm
rain mn
cm
humidity
%
barometer
mb
20260506193055 28 158 3.2 16.1 0.00 0.00 0.00 80 1010.3
20260506191555 28 219 3.2 8.0 0.00 0.00 0.00 80 1010.5
20260506190053 28 217 4.8 9.7 0.00 0.00 0.00 81 1010.9
20260506184604 28 190 1.6 9.7 0.00 0.00 0.00 81 1010.9
20260506183103 28 142 3.2 9.7 0.00 0.00 0.00 81 1011.1
20260506181611 27 163 3.2 9.7 0.00 0.00 0.00 82 1011.2
20260506180058 27 211 3.2 9.7 0.00 0.00 0.00 81 1011.2
20260506174601 27 198 3.2 8.0 0.00 0.00 0.00 81 1011.3
20260506173101 28 178 3.2 9.7 0.00 0.00 0.00 81 1011.5
20260506171601 27 207 1.6 8.0 0.00 0.00 0.00 83 1011.5
20260506170055 27 114 1.6 12.9 0.00 0.00 0.00 83 1011.7
20260506164557 27 132 3.2 11.3 0.00 0.00 0.00 84 1011.7
20260506163055 26 171 3.2 9.7 0.00 0.00 0.00 87 1011.5
20260506161603 26 162 1.6 4.8 0.00 0.00 0.00 89 1011.6
20260506160055 26 149 1.6 11.3 0.00 0.00 0.00 88 1011.6
20260506154556 26 207 1.6 9.7 0.00 0.00 0.00 89 1011.2
20260506153052 26 205 1.6 4.8 0.00 0.00 0.00 90 1011.1
20260506151607 25 91 1.6 6.4 0.00 0.00 0.00 90 1010.9
20260506150054 25 175 1.6 4.8 0.00 0.00 0.00 91 1010.7
20260506144557 25 113 1.6 3.2 0.00 0.00 0.00 91 1010.4
20260506143057 25 113 0.0 3.2 0.00 0.00 0.00 91 1010.4
20260506141551 25 0 0.0 3.2 0.00 0.00 0.00 91 1010.7
20260506140103 25 0 0.0 4.8 0.00 0.00 0.00 91 1010.7
20260506134552 25 133 1.6 6.4 0.00 0.00 0.00 92 1010.7
20260506133054 25 130 1.6 3.2 0.00 0.00 0.00 93 1010.7
20260506131557 25 180 0.0 3.2 0.00 0.00 0.00 93 1010.8
20260506130110 25 134 0.0 3.2 0.00 0.00 0.00 93 1011.0
20260506124556 24 123 1.6 4.8 0.00 0.00 0.00 93 1010.7
20260506123051 24 155 0.0 4.8 0.00 0.00 0.00 93 1010.7
20260506121556 24 0 0.0 3.2 0.00 0.00 0.00 93 1010.6
20260506120054 24 153 0.0 3.2 0.00 0.00 0.00 93 1010.3
20260506114555 24 252 0.0 3.2 0.00 0.00 0.00 93 1010.1
20260506113101 24 226 0.0 4.8 0.00 0.00 0.00 93 1009.9
20260506111554 23 273 1.6 6.4 0.00 0.00 0.00 93 1009.8
20260506110101 23 212 1.6 6.4 0.00 0.00 0.00 93 1009.7
20260506104600 23 122 0.0 4.8 0.00 0.00 0.00 93 1009.7
20260506103055 23 190 0.0 4.8 0.00 0.00 0.00 93 1009.7
20260506101556 24 126 1.6 4.8 0.00 0.00 0.00 93 1009.7
20260506100057 24 172 0.0 3.2 0.00 0.00 0.00 93 1009.6
20260506094558 24 176 0.0 3.2 0.00 0.00 0.00 93 1009.5
20260506093103 24 119 0.0 3.2 0.00 0.00 0.00 93 1009.6
20260506091602 23 0 0.0 3.2 0.00 0.00 0.00 93 1009.6
20260506084558 23 130 0.0 3.2 0.00 0.00 0.00 92 1009.8
20260506083059 24 219 0.0 4.8 0.00 0.00 0.00 92 1009.7
20260506081555 24 144 1.6 4.8 0.00 0.00 0.00 92 1010.0
20260506073104 24 155 1.6 8.0 0.00 0.00 0.00 91 1010.4
20260506071613 24 196 1.6 9.7 0.00 0.00 0.00 91 1010.6
20260506070104 24 126 1.6 9.7 0.00 0.00 0.00 91 1010.7
20260506061553 24 172 1.6 8.0 0.00 0.00 0.00 90 1010.4
20260506044559 25 134 3.2 11.3 0.00 0.00 0.00 89 1010.4
20260506043054 25 182 3.2 12.9 0.00 0.00 0.00 89 1010.4
20260506041606 25 196 3.2 9.7 0.00 0.00 0.00 89 1010.4
20260506040052 25 180 3.2 11.3 0.00 0.00 0.00 89 1010.4
20260506034554 25 200 6.4 12.9 0.00 0.00 0.00 89 1010.3
20260506033105 25 187 6.4 12.9 0.00 0.00 0.00 89 1010.2
20260506031557 24 110 3.2 14.5 0.00 0.00 0.00 89 1010.2
20260506030054 25 191 3.2 11.3 0.00 0.00 0.00 90 1010.1
20260506024553 24 172 3.2 9.7 0.00 0.00 0.00 90 1009.9
20260506023052 24 165 3.2 8.0 0.00 0.00 0.00 89 1009.7
20260506021555 24 98 3.2 8.0 0.00 0.00 0.00 89 1009.6
20260506020055 25 190 3.2 9.7 0.00 0.00 0.00 89 1009.3
20260506014557 25 149 1.6 8.0 0.00 0.00 0.00 88 1009.1
20260506013056 25 211 3.2 11.3 0.00 0.00 0.00 88 1008.9
20260506011553 25 199 4.8 12.9 0.00 0.00 0.00 87 1008.5
20260506010053 25 223 4.8 14.5 0.00 0.00 0.00 87 1008.4
20260506004556 25 197 3.2 16.1 0.00 0.00 0.00 86 1008.1
20260506003058 25 157 4.8 11.3 0.00 0.00 0.00 86 1008.1
20260506001609 25 192 3.2 11.3 0.00 0.00 0.00 85 1008.2
20260506000055 26 186 4.8 12.9 0.00 0.00 0.00 84 1008.1
20260505234559 26 208 4.8 14.5 0.00 0.00 0.00 84 1008.2
20260505233058 26 159 6.4 17.7 0.00 0.00 0.00 83 1008.3
20260505231557 26 209 6.4 17.7 0.00 0.00 0.00 82 1008.4
20260505230110 26 183 8.0 22.5 0.00 0.00 0.00 81 1008.4
20260505224555 26 243 6.4 19.3 0.00 0.00 0.00 80 1008.3
20260505223100 26 216 6.4 16.1 0.00 0.00 0.00 80 1008.5
20260505221555 26 189 6.4 17.7 0.00 0.00 0.00 81 1008.5
20260505220052 26 188 4.8 16.1 0.00 0.00 0.00 82 1008.5
20260505214605 26 173 4.8 19.3 0.00 0.00 0.00 83 1008.8
20260505213059 26 179 6.4 27.4 0.00 0.00 0.00 82 1009.0
20260505211611 27 142 6.4 17.7 0.00 0.00 0.00 80 1009.0
20260505210106 26 211 8.0 19.3 0.00 0.00 0.00 82 1009.0
20260505204553 26 193 8.0 16.1 0.00 0.00 0.00 81 1009.5
20260505203058 27 144 4.8 22.5 0.00 0.00 0.00 81 1009.7
20260505201606 26 232 6.4 16.1 0.00 0.00 0.00 82 1009.9
20260505200053 26 142 4.8 12.9 0.00 0.00 0.00 82 1010.0
20260505194555 27 146 6.4 16.1 0.00 0.00 0.00 81 1010.1